Location: Roanoke
(37.2710°N, 79.9420°W)
Time: 13:55:09
(UTC-05:00)

S-56A Canister/Altair - Pass Details

Date: 25 November 2019
Orbit: 633 x 2499 km, 38.9° (Epoch: 06 December)

Event Time Altitude Azimuth Distance (km) Brightness Sun altitude
Rises 12:48:41 0° 208° (SSW) 6,165 13.2 31.1°
Reaches altitude 10° 12:53:20 10° 200° (SSW) 5,124 13.3 30.9°
Maximum altitude 13:05:45 35° 143° (SE) 3,161 11.5 30.3°
Drops below altitude 10° 13:15:43 10° 84° (E) 4,124 11.1 29.7°
Sets 13:18:58 0° 75° (ENE) 4,865 11.3 29.5°
